This demonstration page uses our WeatherBlox Daily Observations layout. Learn more.

Left ArrowRight Arrow

Hourly Observations for December 29, 2019

Temp ( °F °C ) Dew Point ( °F °C ) Humidity (%) Winds ( mph kmh ) Pressure ( in mb ) Visibility ( mi km ) Precip ( " mm )
12:56 am 00:56 Cloudy with Light Rain 39 4 39 4 100 100 NNW 3 6 29.45 997 6 10 0.23 5.84
1:56 am 01:56 Cloudy 39 4 39 4 100 100 W 6 9 29.45 997 10 16 0.02 0.51
2:56 am 02:56 Cloudy 37 3 37 3 100 100 W 13 20 29.47 998 10 16 0.00 0.00
3:11 am 03:11 Cloudy with Haze N/A N/A N/A W 9 15 N/A 6 10 0.00 0.00
3:56 am 03:56 Cloudy 36 2 36 2 100 100 WSW 8 13 29.48 998 10 16 0.00 0.00
4:11 am 04:11 Cloudy with Haze N/A N/A N/A SW 8 13 N/A 7 11 0.00 0.00
4:41 am 04:41 Cloudy with Haze N/A N/A N/A SW 8 13 N/A 6 10 0.00 0.00
4:56 am 04:56 Cloudy with Mist and Fog N/A N/A N/A WSW 7 11 N/A 3 4 0.00 0.00
5:56 am 05:56 Cloudy with Fog 36 2 36 2 100 100 SW 8 13 29.49 999 3 5 0.00 0.00
6:56 am 06:56 Cloudy 36 2 34 1 93 93 WSW 10 17 29.52 1000 10 16 0.00 0.00
7:11 am 07:11 Cloudy N/A N/A N/A SW 10 17 N/A 10 16 0.00 0.00
7:56 am 07:56 Cloudy 34 1 32 0 93 93 SW 9 15 29.53 1000 10 16 0.00 0.00
8:56 am 08:56 Cloudy 32 0 28 -2 87 87 WSW 9 15 29.54 1000 10 16 0.00 0.00
9:56 am 09:56 Cloudy 32 0 27 -3 80 80 WSW 10 17 29.55 1001 10 16 0.00 0.00
10:56 am 10:56 Cloudy 32 0 27 -3 80 80 W 10 17 29.55 1001 10 16 0.00 0.00
11:41 am 11:41 Cloudy N/A N/A N/A WSW 14 22 N/A 10 16 0.00 0.00
11:56 am 11:56 Cloudy 32 0 27 -3 80 80 WSW 14 22 29.54 1001 10 16 0.00 0.00
12:56 pm 12:56 Cloudy 32 0 27 -3 80 80 WSW 12 19 29.52 1000 10 16 0.00 0.00
1:56 pm 13:56 Cloudy 32 0 25 -4 75 75 WSW 8 13 29.51 999 10 16 0.00 0.00
2:01 pm 14:01 Cloudy 32 0 25 -4 75 75 WSW 13 20 29.51 999 10 16 0.00 0.00
2:31 pm 14:31 Cloudy 30 -1 27 -3 86 86 WSW 13 20 29.51 999 10 16 0.00 0.00
2:46 pm 14:46 Cloudy 32 0 27 -3 80 80 W 12 19 29.52 1000 10 16 0.00 0.00
2:56 pm 14:56 Cloudy 32 0 25 -4 75 75 WSW 10 17 29.52 1000 10 16 0.00 0.00
3:26 pm 15:26 Cloudy 30 -1 25 -4 80 80 WSW 13 20 29.52 1000 10 16 0.00 0.00
3:41 pm 15:41 Cloudy 32 0 25 -4 75 75 WSW 14 22 29.52 1000 10 16 0.00 0.00
3:56 pm 15:56 Cloudy 32 0 25 -4 75 75 W 13 20 29.53 1000 10 16 0.00 0.00
4:56 pm 16:56 Cloudy 32 0 25 -4 75 75 WSW 13 20 29.54 1000 10 16 0.00 0.00
5:56 pm 17:56 Cloudy with Light Snow 30 -1 25 -4 80 80 W 13 20 29.54 1000 10 16 0.00 0.00
6:19 pm 18:19 Cloudy with Light Snow 30 -1 27 -3 86 86 W 14 22 29.54 1000 3 5 0.00 0.00
6:34 pm 18:34 Cloudy with Light Snow 28 -2 25 -4 86 86 W 16 26 29.55 1001 3 4 0.00 0.00
6:56 pm 18:56 Cloudy with Light Snow 28 -2 25 -4 86 86 W 14 22 29.56 1001 3 5 0.00 0.00
7:56 pm 19:56 Cloudy with Light Snow 28 -2 25 -4 86 86 W 13 20 29.57 1001 3 5 0.00 0.00
8:56 pm 20:56 Cloudy 28 -2 19 -7 69 69 W 21 33 29.57 1001 10 16 0.00 0.00
9:48 pm 21:48 Cloudy 27 -3 19 -7 74 74 WNW 18 30 29.58 1002 10 16 0.00 0.00
9:56 pm 21:56 Cloudy with Blowing Snow 27 -3 19 -7 74 74 W 17 28 29.58 1002 3 5 0.00 0.00
10:56 pm 22:56 Windy with Snow Likely 25 -4 19 -7 80 80 W 23 37 29.60 1003 5 8 0.00 0.00
11:56 pm 23:56 Cloudy 27 -3 18 -8 69 69 WNW 22 35 29.60 1003 10 16 0.00 0.00

Powered by AerisWeather